Regional Weather Roundup
Issued by NWS

Home | Current Version | Previous Version | Text Only | Print | Product List | Glossary Off
Versions: 1 2 3 4 5 6 7 8 9 10 11 12 13 14 15 16 17 18 19 20 21 22 23 24 25 26 27 28 29 30 31 32 33 34 35 36 37 38 39 40 41 42 43 44 45 46 47 48 49 50

000
ASUS43 KFSD 210810
RWRSD

WEATHER ROUNDUP FOR SOUTH DAKOTA
NATIONAL WEATHER SERVICE SIOUX FALLS SD
300 AM CDT SAT APR 21 2018

NOTE: "FAIR" INDICATES FEW OR NO CLOUDS BELOW 12,000 FEET WITH NO
SIGNIFICANT WEATHER AND/OR OBSTRUCTIONS TO VISIBILITY.


SDZ001>005-009-010-012>017-210900-
NORTHWEST AND NORTH CENTRAL SOUTH DAKOTA

CITY           SKY/WX    TMP DP  RH WIND       PRES   REMARKS
BUFFALO          N/A     42  37  82 S17G26    30.13R
FAITH            N/A     39  39 100 S20       30.24F
MOBRIDGE       CLOUDY    42  38  85 SE7       30.27S
$$

SDZ012>016-024>037-041>051-057-063-072>074-210900-
SOUTHWEST AND SOUTH CENTRAL SOUTH DAKOTA

CITY           SKY/WX    TMP DP  RH WIND       PRES   REMARKS
RAPID CTY ARPT CLOUDY    38  37  97 SE15      30.24S
PIERRE         LGT RAIN  41  40  96 S6        30.31R
CUSTER         FOG       32  30  92 S8        30.19F VSB 1/4 WCI  25
ELLSWORTH AFB  CLOUDY    39  39 100 S18       30.23S
PHILIP         LGT RAIN  41  40  96 CALM      30.30S
PINE RIDGE     CLOUDY    39  38  96 SE5       30.26S
SPEARFISH      FAIR      36  34  93 CALM      30.17S
WINNER         CLOUDY    40  35  83 SE8       30.30S
$$

SDZ004>011-016>023-039-040-210900-
NORTHEAST SOUTH DAKOTA

CITY           SKY/WX    TMP DP  RH WIND       PRES   REMARKS
ABERDEEN       CLOUDY    40  37  89 S6        30.34F
WATERTOWN      CLOUDY    36  32  85 S7        30.36R
BROOKINGS      CLOUDY    37  33  85 SW5       30.37R
SISSETON         N/A     35  34  96 S6        30.35F
$$

SDZ017-020-022-023-036>040-048>070-210900-
SOUTHEAST SOUTH DAKOTA

CITY           SKY/WX    TMP DP  RH WIND       PRES   REMARKS
SIOUX FALLS    CLOUDY    39  32  76 E7        30.37S
HURON          CLOUDY    40  36  86 SE7       30.35R
CHAMBERLAIN    DRIZZLE   42  42 100 S6        30.32R
MITCHELL       CLOUDY    38  36  92 E6        30.35S
YANKTON        CLOUDY    40  36  86 NE7       30.34F
$$

ABBREVIATIONS USED IN REMARKS
   TC - TEMPERATURE IN CELSIUS
  WCI - WIND CHILL INDEX
   HX - HEAT INDEX
  VSB - VISIBILITY





USA.gov is the U.S. government's official web portal to all federal, state and local government web resources and services.